Time,TemperatureF,DewpointF,PressureIn,WindDirection,WindDirectionDegrees,WindSpeedMPH,WindSpeedGustMPH,Humidity,HourlyPrecipIn,Conditions,Clouds,dailyrainin,SolarRadiationWatts/m^2,SoftwareType,DateUTC
2013-11-19 00:01:00,42.8,40.9,29.78,NW,311,0.0,2.0,93,0.00,,,0.00,0,WeatherCatV2.00B1758,2013-11-19 00:01:00,
2013-11-19 00:06:00,42.7,40.5,29.78,East,95,1.0,4.0,92,0.00,,,0.00,0,WeatherCatV2.00B1758,2013-11-19 00:06:00,
2013-11-19 00:11:00,42.5,40.3,29.78,NNE,20,0.0,5.0,92,0.00,,,0.00,0,WeatherCatV2.00B1758,2013-11-19 00:11:00,
2013-11-19 00:16:00,42.4,40.2,29.78,NNW,334,2.0,6.0,92,0.00,,,0.00,0,WeatherCatV2.00B1758,2013-11-19 00:16:00,
2013-11-19 00:21:00,42.2,39.8,29.79,NNW,343,1.0,4.0,91,0.00,,,0.00,0,WeatherCatV2.00B1758,2013-11-19 00:21:00,
2013-11-19 00:26:00,42.0,39.6,29.79,NNE,26,2.0,3.0,91,0.00,,,0.00,0,WeatherCatV2.00B1758,2013-11-19 00:26:00,
2013-11-19 00:31:00,41.8,39.1,29.79,NNW,348,0.0,6.0,90,0.00,,,0.00,0,WeatherCatV2.00B1758,2013-11-19 00:31:00,
2013-11-19 00:36:00,41.6,38.9,29.79,NNW,336,1.0,3.0,90,0.00,,,0.00,0,WeatherCatV2.00B1758,2013-11-19 00:36:00,
2013-11-19 00:41:00,41.4,38.7,29.79,NNW,342,1.0,5.0,90,0.00,,,0.00,0,WeatherCatV2.00B1758,2013-11-19 00:41:00,
2013-11-19 00:46:00,41.3,38.6,29.79,NW,325,1.0,5.0,90,0.00,,,0.00,0,WeatherCatV2.00B1758,2013-11-19 00:46:00,
2013-11-19 00:51:00,41.1,38.4,29.79,NW,322,3.0,3.0,90,0.00,,,0.00,0,WeatherCatV2.00B1758,2013-11-19 00:51:00,
2013-11-19 00:56:00,41.1,38.4,29.79,NW,319,0.0,5.0,90,0.00,,,0.00,0,WeatherCatV2.00B1758,2013-11-19 00:56:00,
2013-11-19 01:01:00,41.0,38.3,29.79,NNW,346,2.0,3.0,90,0.00,,,0.00,0,WeatherCatV2.00B1758,2013-11-19 01:01:00,
2013-11-19 01:06:00,41.0,38.3,29.79,NNW,348,1.0,4.0,90,0.00,,,0.00,0,WeatherCatV2.00B1758,2013-11-19 01:06:00,
2013-11-19 01:11:00,40.9,38.5,29.79,NNW,328,1.0,4.0,91,0.00,,,0.00,0,WeatherCatV2.00B1758,2013-11-19 01:11:00,
2013-11-19 01:16:00,40.8,38.4,29.79,NW,317,0.0,5.0,91,0.00,,,0.00,0,WeatherCatV2.00B1758,2013-11-19 01:16:00,
2013-11-19 01:21:00,40.8,38.4,29.79,NNW,329,1.0,2.0,91,0.00,,,0.00,0,WeatherCatV2.00B1758,2013-11-19 01:21:00,
2013-11-19 01:26:00,40.7,38.3,29.79,NE,39,0.0,6.0,91,0.00,,,0.00,0,WeatherCatV2.00B1758,2013-11-19 01:26:00,
2013-11-19 01:31:00,40.7,38.3,29.79,NNW,330,2.0,3.0,91,0.00,,,0.00,0,WeatherCatV2.00B1758,2013-11-19 01:31:00,
2013-11-19 01:36:00,40.7,38.3,29.79,NW,324,1.0,5.0,91,0.00,,,0.00,0,WeatherCatV2.00B1758,2013-11-19 01:36:00,
2013-11-19 01:41:00,40.7,38.3,29.79,NNW,344,2.0,3.0,91,0.00,,,0.00,0,WeatherCatV2.00B1758,2013-11-19 01:41:00,
2013-11-19 01:44:00,40.7,38.3,29.79,NW,320,1.0,4.0,91,0.00,,,0.00,0,WeatherCatV2.00B1758,2013-11-19 01:44:00,
2013-11-19 01:49:00,40.8,38.4,29.80,NNW,338,1.0,2.0,91,0.00,,,0.00,0,WeatherCatV2.00B1758,2013-11-19 01:49:00,
2013-11-19 01:54:00,40.8,38.4,29.80,NNW,328,2.0,3.0,91,0.00,,,0.00,0,WeatherCatV2.00B1758,2013-11-19 01:54:00,
2013-11-19 01:59:00,40.8,38.4,29.80,NW,315,0.0,2.0,91,0.00,,,0.00,0,WeatherCatV2.00B1758,2013-11-19 01:59:00,
2013-11-19 02:04:00,40.7,38.3,29.80,NW,321,0.0,1.0,91,0.00,,,0.00,0,WeatherCatV2.00B1758,2013-11-19 02:04:00,
2013-11-19 02:09:00,40.7,38.3,29.80,NNW,339,0.0,2.0,91,0.00,,,0.00,0,WeatherCatV2.00B1758,2013-11-19 02:09:00,
2013-11-19 02:14:00,40.5,38.1,29.80,NW,321,0.0,3.0,91,0.00,,,0.00,0,WeatherCatV2.00B1758,2013-11-19 02:14:00,
2013-11-19 02:19:00,40.4,38.0,29.80,NNW,329,1.0,2.0,91,0.00,,,0.00,0,WeatherCatV2.00B1758,2013-11-19 02:19:00,
2013-11-19 02:24:00,40.2,37.8,29.80,NNW,329,1.0,1.0,91,0.00,,,0.00,0,WeatherCatV2.00B1758,2013-11-19 02:24:00,
2013-11-19 02:29:00,40.0,37.9,29.80,NE,36,1.0,3.0,92,0.00,,,0.00,0,WeatherCatV2.00B1758,2013-11-19 02:29:00,
2013-11-19 02:34:00,40.0,37.9,29.80,NNW,347,2.0,3.0,92,0.00,,,0.00,0,WeatherCatV2.00B1758,2013-11-19 02:34:00,
2013-11-19 02:39:00,39.8,37.7,29.80,NW,309,0.0,3.0,92,0.00,,,0.00,0,WeatherCatV2.00B1758,2013-11-19 02:39:00,
2013-11-19 02:44:00,39.7,37.6,29.80,NW,324,0.0,4.0,92,0.00,,,0.00,0,WeatherCatV2.00B1758,2013-11-19 02:44:00,
2013-11-19 02:49:00,39.6,37.5,29.80,NW,324,0.0,1.0,92,0.00,,,0.00,0,WeatherCatV2.00B1758,2013-11-19 02:49:00,
2013-11-19 02:54:00,39.4,37.3,29.80,NW,324,0.0,2.0,92,0.00,,,0.00,0,WeatherCatV2.00B1758,2013-11-19 02:54:00,
2013-11-19 02:59:00,39.3,37.5,29.80,NW,325,0.0,2.0,93,0.00,,,0.00,0,WeatherCatV2.00B1758,2013-11-19 02:59:00,
2013-11-19 03:04:00,39.1,37.2,29.81,NW,325,1.0,1.0,93,0.00,,,0.00,0,WeatherCatV2.00B1758,2013-11-19 03:04:00,
2013-11-19 03:09:00,38.9,37.0,29.81,NW,325,0.0,3.0,93,0.00,,,0.00,0,WeatherCatV2.00B1758,2013-11-19 03:09:00,
2013-11-19 03:14:00,38.7,36.8,29.81,NW,325,0.0,3.0,93,0.00,,,0.00,0,WeatherCatV2.00B1758,2013-11-19 03:14:00,
2013-11-19 03:19:00,38.6,36.8,29.81,NW,322,1.0,3.0,93,0.00,,,0.00,0,WeatherCatV2.00B1758,2013-11-19 03:19:00,
2013-11-19 03:24:00,38.5,36.7,29.80,NW,322,0.0,2.0,93,0.00,,,0.00,0,WeatherCatV2.00B1758,2013-11-19 03:24:00,
2013-11-19 03:29:00,38.4,36.6,29.80,NW,322,1.0,2.0,93,0.00,,,0.00,0,WeatherCatV2.00B1758,2013-11-19 03:29:00,
2013-11-19 03:34:00,38.2,36.4,29.81,NW,322,1.0,1.0,93,0.00,,,0.00,0,WeatherCatV2.00B1758,2013-11-19 03:34:00,
2013-11-19 03:39:00,38.1,36.3,29.81,NW,323,0.0,1.0,93,0.00,,,0.00,0,WeatherCatV2.00B1758,2013-11-19 03:39:00,
2013-11-19 03:44:00,38.0,36.4,29.81,NW,323,0.0,1.0,94,0.00,,,0.00,0,WeatherCatV2.00B1758,2013-11-19 03:44:00,
2013-11-19 03:49:00,37.8,36.2,29.81,NW,323,0.0,0.0,94,0.00,,,0.00,0,WeatherCatV2.00B1758,2013-11-19 03:49:00,
2013-11-19 03:54:00,37.8,36.2,29.81,NW,323,0.0,1.0,94,0.00,,,0.00,0,WeatherCatV2.00B1758,2013-11-19 03:54:00,
2013-11-19 03:59:00,37.7,36.1,29.81,NW,323,0.0,1.0,94,0.00,,,0.00,0,WeatherCatV2.00B1758,2013-11-19 03:59:00,
2013-11-19 04:04:00,37.5,35.9,29.81,NW,323,0.0,1.0,94,0.00,,,0.00,0,WeatherCatV2.00B1758,2013-11-19 04:04:00,
2013-11-19 04:07:00,37.5,35.9,29.81,NW,323,0.0,1.0,94,0.00,,,0.00,0,WeatherCatV2.00B1758,2013-11-19 04:07:00,
2013-11-19 04:12:00,37.4,35.8,29.81,NW,324,1.0,1.0,94,0.00,,,0.00,0,WeatherCatV2.00B1758,2013-11-19 04:12:00,
2013-11-19 04:17:00,37.3,35.7,29.81,NW,324,0.0,1.0,94,0.00,,,0.00,0,WeatherCatV2.00B1758,2013-11-19 04:17:00,
2013-11-19 04:22:00,37.2,35.6,29.81,NW,324,0.0,1.0,94,0.00,,,0.00,0,WeatherCatV2.00B1758,2013-11-19 04:22:00,
2013-11-19 04:27:00,37.0,35.4,29.81,NW,324,0.0,1.0,94,0.00,,,0.00,0,WeatherCatV2.00B1758,2013-11-19 04:27:00,
2013-11-19 04:32:00,36.9,35.3,29.82,NW,324,0.0,1.0,94,0.00,,,0.00,0,WeatherCatV2.00B1758,2013-11-19 04:32:00,
2013-11-19 04:37:00,36.7,35.1,29.82,NW,324,1.0,2.0,94,0.00,,,0.00,0,WeatherCatV2.00B1758,2013-11-19 04:37:00,
2013-11-19 04:42:00,36.6,35.0,29.81,NW,324,0.0,1.0,94,0.00,,,0.00,0,WeatherCatV2.00B1758,2013-11-19 04:42:00,
2013-11-19 04:47:00,36.4,34.8,29.81,NW,324,2.0,2.0,94,0.00,,,0.00,0,WeatherCatV2.00B1758,2013-11-19 04:47:00,
2013-11-19 04:52:00,36.3,34.7,29.82,NW,324,0.0,1.0,94,0.00,,,0.00,0,WeatherCatV2.00B1758,2013-11-19 04:52:00,
2013-11-19 04:57:00,36.3,34.7,29.82,NW,324,0.0,0.0,94,0.00,,,0.00,0,WeatherCatV2.00B1758,2013-11-19 04:57:00,
2013-11-19 05:01:00,36.2,34.6,29.82,NW,324,0.0,1.0,94,0.00,,,0.00,0,WeatherCatV2.00B1758,2013-11-19 05:01:00,
2013-11-19 05:02:00,36.2,34.6,29.82,NW,324,0.0,1.0,94,0.00,,,0.00,0,WeatherCatV2.00B1758,2013-11-19 05:02:00,
2013-11-19 05:07:00,36.1,34.5,29.82,NW,324,0.0,1.0,94,0.00,,,0.00,0,WeatherCatV2.00B1758,2013-11-19 05:07:00,
2013-11-19 05:12:00,35.9,34.6,29.82,NW,324,1.0,2.0,95,0.00,,,0.00,0,WeatherCatV2.00B1758,2013-11-19 05:12:00,
2013-11-19 05:17:00,35.9,34.6,29.82,NW,324,0.0,1.0,95,0.00,,,0.00,0,WeatherCatV2.00B1758,2013-11-19 05:17:00,
2013-11-19 05:22:00,35.9,34.6,29.82,NW,324,0.0,1.0,95,0.00,,,0.00,0,WeatherCatV2.00B1758,2013-11-19 05:22:00,
2013-11-19 05:27:00,35.8,34.5,29.82,NW,324,0.0,4.0,95,0.00,,,0.00,0,WeatherCatV2.00B1758,2013-11-19 05:27:00,
2013-11-19 05:32:00,35.9,34.6,29.82,NW,324,0.0,2.0,95,0.00,,,0.00,0,WeatherCatV2.00B1758,2013-11-19 05:32:00,
2013-11-19 05:37:00,35.9,34.6,29.82,NW,324,0.0,1.0,95,0.00,,,0.00,0,WeatherCatV2.00B1758,2013-11-19 05:37:00,
2013-11-19 05:42:00,35.9,34.6,29.83,NW,324,0.0,1.0,95,0.00,,,0.00,0,WeatherCatV2.00B1758,2013-11-19 05:42:00,
2013-11-19 05:47:00,36.0,34.7,29.83,NW,323,2.0,2.0,95,0.00,,,0.00,0,WeatherCatV2.00B1758,2013-11-19 05:47:00,
2013-11-19 05:52:00,36.0,34.7,29.83,North,355,0.0,2.0,95,0.00,,,0.00,0,WeatherCatV2.00B1758,2013-11-19 05:52:00,
2013-11-19 05:57:00,36.0,34.7,29.83,NW,322,1.0,3.0,95,0.00,,,0.00,0,WeatherCatV2.00B1758,2013-11-19 05:57:00,
2013-11-19 06:02:00,35.9,34.6,29.83,NNE,26,0.0,1.0,95,0.00,,,0.00,0,WeatherCatV2.00B1758,2013-11-19 06:02:00,
2013-11-19 06:07:00,35.9,34.6,29.83,NNW,348,0.0,4.0,95,0.00,,,0.00,0,WeatherCatV2.00B1758,2013-11-19 06:07:00,
2013-11-19 06:12:00,35.9,34.6,29.84,North,350,0.0,2.0,95,0.00,,,0.00,0,WeatherCatV2.00B1758,2013-11-19 06:12:00,
2013-11-19 06:17:00,35.8,34.5,29.84,NNW,345,1.0,1.0,95,0.00,,,0.00,0,WeatherCatV2.00B1758,2013-11-19 06:17:00,
2013-11-19 06:22:00,35.8,34.5,29.84,NNW,345,0.0,1.0,95,0.00,,,0.00,0,WeatherCatV2.00B1758,2013-11-19 06:22:00,
2013-11-19 06:27:00,35.7,34.4,29.84,NNE,16,5.0,5.0,95,0.00,,,0.00,0,WeatherCatV2.00B1758,2013-11-19 06:27:00,
2013-11-19 06:32:00,35.6,34.3,29.84,NNW,339,2.0,4.0,95,0.00,,,0.00,0,WeatherCatV2.00B1758,2013-11-19 06:32:00,
2013-11-19 06:37:00,35.6,34.3,29.84,North,355,1.0,2.0,95,0.00,,,0.00,0,WeatherCatV2.00B1758,2013-11-19 06:37:00,
2013-11-19 06:42:00,35.5,34.2,29.84,North,355,2.0,4.0,95,0.00,,,0.00,0,WeatherCatV2.00B1758,2013-11-19 06:42:00,
2013-11-19 06:47:00,35.5,34.2,29.84,NW,323,3.0,3.0,95,0.00,,,0.00,0,WeatherCatV2.00B1758,2013-11-19 06:47:00,
2013-11-19 06:52:00,35.5,34.2,29.84,NW,323,1.0,2.0,95,0.00,,,0.00,0,WeatherCatV2.00B1758,2013-11-19 06:52:00,
2013-11-19 06:57:00,35.5,34.2,29.84,NNW,332,0.0,2.0,95,0.00,,,0.00,0,WeatherCatV2.00B1758,2013-11-19 06:57:00,
2013-11-19 07:02:00,35.5,34.2,29.85,NNW,332,1.0,1.0,95,0.00,,,0.00,0,WeatherCatV2.00B1758,2013-11-19 07:02:00,
2013-11-19 07:07:00,35.5,34.2,29.85,NW,306,0.0,4.0,95,0.00,,,0.00,0,WeatherCatV2.00B1758,2013-11-19 07:07:00,
2013-11-19 07:12:00,35.6,34.3,29.85,NNE,29,1.0,5.0,95,0.00,,,0.00,0,WeatherCatV2.00B1758,2013-11-19 07:12:00,
2013-11-19 07:17:00,35.6,34.0,29.85,NW,319,2.0,3.0,94,0.00,,,0.00,0,WeatherCatV2.00B1758,2013-11-19 07:17:00,
2013-11-19 07:22:00,35.6,34.0,29.85,NW,319,2.0,3.0,94,0.00,,,0.00,0,WeatherCatV2.00B1758,2013-11-19 07:22:00,
2013-11-19 07:27:00,35.7,34.2,29.85,NW,325,0.0,2.0,94,0.00,,,0.00,0,WeatherCatV2.00B1758,2013-11-19 07:27:00,
2013-11-19 07:32:00,35.7,34.2,29.85,NNW,337,1.0,2.0,94,0.00,,,0.00,5,WeatherCatV2.00B1758,2013-11-19 07:32:00,
2013-11-19 07:37:00,35.7,34.2,29.85,NNW,331,2.0,2.0,94,0.00,,,0.00,7,WeatherCatV2.00B1758,2013-11-19 07:37:00,
2013-11-19 07:42:00,35.7,34.2,29.86,NNW,347,1.0,2.0,94,0.00,,,0.00,9,WeatherCatV2.00B1758,2013-11-19 07:42:00,
2013-11-19 07:47:00,35.7,34.2,29.86,NE,46,0.0,3.0,94,0.00,,,0.00,11,WeatherCatV2.00B1758,2013-11-19 07:47:00,
2013-11-19 07:52:00,35.7,34.2,29.86,NW,315,4.0,4.0,94,0.00,,,0.00,12,WeatherCatV2.00B1758,2013-11-19 07:52:00,
2013-11-19 07:57:00,35.7,34.2,29.87,NW,319,4.0,4.0,94,0.00,,,0.00,14,WeatherCatV2.00B1758,2013-11-19 07:57:00,
2013-11-19 08:02:00,35.8,34.0,29.87,NNW,333,2.0,3.0,93,0.00,,,0.00,16,WeatherCatV2.00B1758,2013-11-19 08:02:00,
2013-11-19 08:07:00,35.9,34.1,29.87,NW,321,1.0,4.0,93,0.00,,,0.00,16,WeatherCatV2.00B1758,2013-11-19 08:07:00,
2013-11-19 08:12:00,36.1,34.3,29.87,ESE,121,0.0,4.0,93,0.00,,,0.00,16,WeatherCatV2.00B1758,2013-11-19 08:12:00,
2013-11-19 08:17:00,36.1,34.3,29.87,NW,317,0.0,2.0,93,0.00,,,0.00,18,WeatherCatV2.00B1758,2013-11-19 08:17:00,
2013-11-19 08:22:00,36.1,34.3,29.87,NW,317,3.0,4.0,93,0.00,,,0.00,19,WeatherCatV2.00B1758,2013-11-19 08:22:00,
2013-11-19 08:27:00,36.2,34.4,29.87,SE,144,2.0,2.0,93,0.00,,,0.00,21,WeatherCatV2.00B1758,2013-11-19 08:27:00,
2013-11-19 08:32:00,36.4,34.6,29.88,NW,317,1.0,5.0,93,0.00,,,0.00,23,WeatherCatV2.00B1758,2013-11-19 08:32:00,
2013-11-19 08:37:00,36.5,34.7,29.88,NW,312,1.0,5.0,93,0.00,,,0.00,23,WeatherCatV2.00B1758,2013-11-19 08:37:00,
2013-11-19 08:42:00,36.7,34.9,29.88,NNW,339,2.0,3.0,93,0.00,,,0.00,25,WeatherCatV2.00B1758,2013-11-19 08:42:00,
2013-11-19 08:47:00,36.8,34.7,29.88,NW,320,1.0,5.0,92,0.00,,,0.00,26,WeatherCatV2.00B1758,2013-11-19 08:47:00,
2013-11-19 08:52:00,37.0,34.9,29.89,NNW,329,0.0,2.0,92,0.00,,,0.00,26,WeatherCatV2.00B1758,2013-11-19 08:52:00,
2013-11-19 08:57:00,37.1,34.7,29.89,NNW,338,0.0,1.0,91,0.00,,,0.00,28,WeatherCatV2.00B1758,2013-11-19 08:57:00,
2013-11-19 09:02:00,37.3,34.9,29.88,NNE,24,2.0,5.0,91,0.00,,,0.00,28,WeatherCatV2.00B1758,2013-11-19 09:02:00,
2013-11-19 09:07:00,37.4,35.0,29.89,NNW,348,0.0,3.0,91,0.00,,,0.00,28,WeatherCatV2.00B1758,2013-11-19 09:07:00,
2013-11-19 09:12:00,37.6,35.2,29.89,NW,311,3.0,5.0,91,0.00,,,0.00,30,WeatherCatV2.00B1758,2013-11-19 09:12:00,
2013-11-19 09:17:00,37.8,35.4,29.90,WNW,299,0.0,2.0,91,0.00,,,0.00,32,WeatherCatV2.00B1758,2013-11-19 09:17:00,
2013-11-19 09:22:00,37.9,35.2,29.90,SSE,153,3.0,7.0,90,0.00,,,0.00,37,WeatherCatV2.00B1758,2013-11-19 09:22:00,
2013-11-19 09:27:00,38.0,35.3,29.90,North,355,0.0,4.0,90,0.00,,,0.00,37,WeatherCatV2.00B1758,2013-11-19 09:27:00,
2013-11-19 09:32:00,38.2,35.2,29.90,North,355,2.0,4.0,89,0.00,,,0.00,39,WeatherCatV2.00B1758,2013-11-19 09:32:00,
2013-11-19 09:37:00,38.3,35.3,29.90,North,5,1.0,2.0,89,0.00,,,0.00,46,WeatherCatV2.00B1758,2013-11-19 09:37:00,
2013-11-19 09:42:00,38.3,35.3,29.90,NNW,336,3.0,6.0,89,0.00,,,0.00,47,WeatherCatV2.00B1758,2013-11-19 09:42:00,
2013-11-19 09:47:00,38.4,35.5,29.91,NW,324,4.0,8.0,89,0.00,,,0.00,33,WeatherCatV2.00B1758,2013-11-19 09:47:00,
2013-11-19 09:52:00,38.6,35.6,29.91,North,0,1.0,4.0,89,0.00,,,0.00,32,WeatherCatV2.00B1758,2013-11-19 09:52:00,
2013-11-19 09:57:00,38.6,35.4,29.91,NNW,347,2.0,7.0,88,0.00,,,0.00,32,WeatherCatV2.00B1758,2013-11-19 09:57:00,
2013-11-19 10:02:00,38.7,35.5,29.91,NNW,327,2.0,4.0,88,0.00,,,0.00,32,WeatherCatV2.00B1758,2013-11-19 10:02:00,
2013-11-19 10:07:00,38.7,35.2,29.91,NNW,339,0.0,4.0,87,0.00,,,0.00,32,WeatherCatV2.00B1758,2013-11-19 10:07:00,
2013-11-19 10:12:00,38.8,35.3,29.91,NNW,331,1.0,4.0,87,0.00,,,0.00,32,WeatherCatV2.00B1758,2013-11-19 10:12:00,
2013-11-19 10:17:00,38.9,35.4,29.92,NW,320,0.0,3.0,87,0.00,,,0.00,90,WeatherCatV2.00B1758,2013-11-19 10:17:00,
2013-11-19 10:22:00,39.1,35.3,29.92,NNW,337,3.0,5.0,86,0.00,,,0.00,264,WeatherCatV2.00B1758,2013-11-19 10:22:00,
2013-11-19 10:27:00,39.2,35.4,29.92,WNW,298,2.0,2.0,86,0.00,,,0.00,271,WeatherCatV2.00B1758,2013-11-19 10:27:00,
2013-11-19 10:32:00,39.4,35.6,29.92,West,277,0.0,4.0,86,0.00,,,0.00,281,WeatherCatV2.00B1758,2013-11-19 10:32:00,
2013-11-19 10:37:00,39.6,35.8,29.92,SE,128,1.0,5.0,86,0.00,,,0.00,294,WeatherCatV2.00B1758,2013-11-19 10:37:00,
2013-11-19 10:42:00,39.5,35.1,29.92,North,5,1.0,5.0,84,0.00,,,0.00,299,WeatherCatV2.00B1758,2013-11-19 10:42:00,
2013-11-19 10:47:00,39.6,35.2,29.92,NW,312,4.0,4.0,84,0.00,,,0.00,309,WeatherCatV2.00B1758,2013-11-19 10:47:00,
2013-11-19 10:52:00,39.9,35.5,29.92,North,350,5.0,6.0,84,0.00,,,0.00,345,WeatherCatV2.00B1758,2013-11-19 10:52:00,
2013-11-19 10:57:00,40.2,35.8,29.92,NNW,332,1.0,4.0,84,0.00,,,0.00,313,WeatherCatV2.00B1758,2013-11-19 10:57:00,
2013-11-19 11:02:00,40.2,35.5,29.92,NW,326,1.0,9.0,83,0.00,,,0.00,327,WeatherCatV2.00B1758,2013-11-19 11:02:00,
2013-11-19 11:07:00,40.2,35.2,29.92,WNW,302,2.0,8.0,82,0.00,,,0.00,316,WeatherCatV2.00B1758,2013-11-19 11:07:00,
2013-11-19 11:12:00,40.4,35.3,29.92,SSE,155,1.0,4.0,82,0.00,,,0.00,156,WeatherCatV2.00B1758,2013-11-19 11:12:00,
2013-11-19 11:17:00,40.1,35.0,29.92,South,180,0.0,1.0,82,0.00,,,0.00,165,WeatherCatV2.00B1758,2013-11-19 11:17:00,
2013-11-19 11:22:00,40.0,35.0,29.93,North,355,1.0,7.0,82,0.00,,,0.00,148,WeatherCatV2.00B1758,2013-11-19 11:22:00,
2013-11-19 11:27:00,40.1,35.4,29.93,NW,321,0.0,4.0,83,0.00,,,0.00,105,WeatherCatV2.00B1758,2013-11-19 11:27:00,
2013-11-19 11:32:00,39.9,34.9,29.93,East,101,1.0,4.0,82,0.00,,,0.00,167,WeatherCatV2.00B1758,2013-11-19 11:32:00,
2013-11-19 11:37:00,39.9,34.9,29.93,NW,317,0.0,1.0,82,0.00,,,0.00,171,WeatherCatV2.00B1758,2013-11-19 11:37:00,
2013-11-19 11:44:00,40.2,35.2,29.93,NNW,337,0.0,2.0,82,0.00,,,0.00,346,WeatherCatV2.00B1758,2013-11-19 11:44:00,
2013-11-19 11:50:00,40.6,35.2,29.93,NE,41,0.0,3.0,81,0.00,,,0.00,327,WeatherCatV2.00B1758,2013-11-19 11:50:00,
2013-11-19 11:55:00,40.8,35.4,29.92,North,355,0.0,6.0,81,0.00,,,0.00,346,WeatherCatV2.00B1758,2013-11-19 11:55:00,
2013-11-19 12:00:00,41.0,35.0,29.93,NNE,28,0.0,1.0,79,0.00,,,0.00,327,WeatherCatV2.00B1758,2013-11-19 12:00:00,
2013-11-19 12:05:00,41.0,35.0,29.93,NW,309,1.0,1.0,79,0.00,,,0.00,151,WeatherCatV2.00B1758,2013-11-19 12:05:00,
2013-11-19 12:10:00,41.0,34.3,29.93,NNW,348,0.0,8.0,77,0.00,,,0.00,86,WeatherCatV2.00B1758,2013-11-19 12:10:00,
2013-11-19 12:15:00,40.7,33.7,29.93,North,5,2.0,4.0,76,0.00,,,0.00,155,WeatherCatV2.00B1758,2013-11-19 12:15:00,
2013-11-19 12:20:00,41.2,34.2,29.93,NW,313,0.0,2.0,76,0.00,,,0.00,341,WeatherCatV2.00B1758,2013-11-19 12:20:00,
2013-11-19 12:25:00,41.4,34.1,29.93,NW,320,0.0,1.0,75,0.00,,,0.00,107,WeatherCatV2.00B1758,2013-11-19 12:25:00,
2013-11-19 12:30:00,41.6,33.9,29.93,NNW,327,2.0,4.0,74,0.00,,,0.00,338,WeatherCatV2.00B1758,2013-11-19 12:30:00,
2013-11-19 12:35:00,41.8,33.8,29.93,NW,316,1.0,3.0,73,0.00,,,0.00,353,WeatherCatV2.00B1758,2013-11-19 12:35:00,
2013-11-19 12:40:00,41.7,33.3,29.93,SSE,149,1.0,5.0,72,0.00,,,0.00,69,WeatherCatV2.00B1758,2013-11-19 12:40:00,
2013-11-19 12:45:00,41.8,34.1,29.93,NNW,345,4.0,5.0,74,0.00,,,0.00,255,WeatherCatV2.00B1758,2013-11-19 12:45:00,
2013-11-19 12:50:00,42.0,34.0,29.93,WNW,300,0.0,2.0,73,0.00,,,0.00,322,WeatherCatV2.00B1758,2013-11-19 12:50:00,
2013-11-19 12:55:00,42.0,33.3,29.93,NNW,331,0.0,3.0,71,0.00,,,0.00,313,WeatherCatV2.00B1758,2013-11-19 12:55:00,
2013-11-19 13:00:00,42.4,34.4,29.93,NW,313,0.0,5.0,73,0.00,,,0.00,316,WeatherCatV2.00B1758,2013-11-19 13:00:00,
2013-11-19 13:05:00,42.4,33.7,29.93,South,184,1.0,4.0,71,0.00,,,0.00,313,WeatherCatV2.00B1758,2013-11-19 13:05:00,
2013-11-19 13:10:00,42.7,33.2,29.93,NNW,346,4.0,8.0,69,0.00,,,0.00,309,WeatherCatV2.00B1758,2013-11-19 13:10:00,
2013-11-19 13:15:00,42.6,32.8,29.93,North,355,0.0,6.0,68,0.00,,,0.00,302,WeatherCatV2.00B1758,2013-11-19 13:15:00,
2013-11-19 13:20:00,42.7,32.9,29.93,WNW,285,1.0,5.0,68,0.00,,,0.00,304,WeatherCatV2.00B1758,2013-11-19 13:20:00,
2013-11-19 13:25:00,42.7,32.5,29.93,West,281,1.0,5.0,67,0.00,,,0.00,297,WeatherCatV2.00B1758,2013-11-19 13:25:00,
2013-11-19 13:30:00,43.1,33.3,29.93,WNW,296,2.0,5.0,68,0.00,,,0.00,285,WeatherCatV2.00B1758,2013-11-19 13:30:00,
2013-11-19 13:35:00,43.5,34.0,29.93,NNW,344,0.0,2.0,69,0.00,,,0.00,279,WeatherCatV2.00B1758,2013-11-19 13:35:00,
2013-11-19 13:40:00,43.3,33.1,29.93,NNW,331,3.0,3.0,67,0.00,,,0.00,255,WeatherCatV2.00B1758,2013-11-19 13:40:00,
2013-11-19 13:45:00,43.1,32.9,29.93,North,349,2.0,4.0,67,0.00,,,0.00,246,WeatherCatV2.00B1758,2013-11-19 13:45:00,
2013-11-19 13:50:00,43.3,33.5,29.93,North,351,0.0,1.0,68,0.00,,,0.00,241,WeatherCatV2.00B1758,2013-11-19 13:50:00,
2013-11-19 13:55:00,43.2,31.9,29.93,NNW,347,2.0,8.0,64,0.00,,,0.00,232,WeatherCatV2.00B1758,2013-11-19 13:55:00,
2013-11-19 14:00:00,42.7,31.4,29.94,West,272,1.0,3.0,64,0.00,,,0.00,223,WeatherCatV2.00B1758,2013-11-19 14:00:00,
2013-11-19 14:05:00,42.6,31.3,29.94,South,173,1.0,2.0,64,0.00,,,0.00,211,WeatherCatV2.00B1758,2013-11-19 14:05:00,
2013-11-19 14:10:00,42.8,31.5,29.94,NW,325,1.0,7.0,64,0.00,,,0.00,199,WeatherCatV2.00B1758,2013-11-19 14:10:00,
2013-11-19 14:15:00,42.9,31.6,29.94,NE,56,2.0,4.0,64,0.00,,,0.00,188,WeatherCatV2.00B1758,2013-11-19 14:15:00,
2013-11-19 14:20:00,42.5,31.2,29.94,North,0,1.0,2.0,64,0.00,,,0.00,179,WeatherCatV2.00B1758,2013-11-19 14:20:00,
2013-11-19 14:25:00,42.2,30.5,29.95,NNW,327,2.0,5.0,63,0.00,,,0.00,146,WeatherCatV2.00B1758,2013-11-19 14:25:00,
2013-11-19 14:28:00,42.2,31.3,29.95,WNW,285,1.0,6.0,65,0.00,,,0.00,160,WeatherCatV2.00B1758,2013-11-19 14:28:00,
2013-11-19 14:33:00,42.2,31.3,29.95,NW,325,0.0,7.0,65,0.00,,,0.00,151,WeatherCatV2.00B1758,2013-11-19 14:33:00,
2013-11-19 14:38:00,42.0,31.1,29.95,SSE,161,0.0,7.0,65,0.00,,,0.00,144,WeatherCatV2.00B1758,2013-11-19 14:38:00,
2013-11-19 14:43:00,41.8,31.3,29.95,WNW,292,2.0,4.0,66,0.00,,,0.00,134,WeatherCatV2.00B1758,2013-11-19 14:43:00,
2013-11-19 14:48:00,41.9,32.1,29.96,NW,312,2.0,5.0,68,0.00,,,0.00,134,WeatherCatV2.00B1758,2013-11-19 14:48:00,
2013-11-19 14:53:00,41.7,31.9,29.96,North,5,0.0,4.0,68,0.00,,,0.00,67,WeatherCatV2.00B1758,2013-11-19 14:53:00,
2013-11-19 14:58:00,41.7,32.3,29.96,SSE,148,0.0,1.0,69,0.00,,,0.00,56,WeatherCatV2.00B1758,2013-11-19 14:58:00,
2013-11-19 15:03:00,41.5,32.5,29.96,NNW,327,0.0,0.0,70,0.00,,,0.00,49,WeatherCatV2.00B1758,2013-11-19 15:03:00,
2013-11-19 15:08:00,41.3,32.3,29.96,SE,136,0.0,1.0,70,0.00,,,0.00,49,WeatherCatV2.00B1758,2013-11-19 15:08:00,
2013-11-19 15:13:00,41.1,32.4,29.96,NNW,344,2.0,3.0,71,0.00,,,0.00,32,WeatherCatV2.00B1758,2013-11-19 15:13:00,
2013-11-19 15:18:00,40.8,32.5,29.97,North,355,0.0,2.0,72,0.00,,,0.00,42,WeatherCatV2.00B1758,2013-11-19 15:18:00,
2013-11-19 15:23:00,40.5,32.5,29.97,SSW,205,1.0,1.0,73,0.00,,,0.00,39,WeatherCatV2.00B1758,2013-11-19 15:23:00,
2013-11-19 15:28:00,40.1,32.2,29.97,South,184,0.0,1.0,73,0.00,,,0.00,26,WeatherCatV2.00B1758,2013-11-19 15:28:00,
2013-11-19 15:33:00,40.0,32.1,29.97,NNW,338,0.0,3.0,73,0.00,,,0.00,28,WeatherCatV2.00B1758,2013-11-19 15:33:00,
2013-11-19 15:38:00,39.9,32.0,29.97,NNE,25,0.0,1.0,73,0.00,,,0.00,21,WeatherCatV2.00B1758,2013-11-19 15:38:00,
2013-11-19 15:43:00,39.8,31.9,29.97,NNW,333,1.0,2.0,73,0.00,,,0.00,16,WeatherCatV2.00B1758,2013-11-19 15:43:00,
2013-11-19 15:48:00,39.7,31.8,29.98,NNW,333,0.0,0.0,73,0.00,,,0.00,12,WeatherCatV2.00B1758,2013-11-19 15:48:00,
2013-11-19 15:53:00,39.5,31.9,29.98,NNW,333,0.0,1.0,74,0.00,,,0.00,9,WeatherCatV2.00B1758,2013-11-19 15:53:00,
2013-11-19 15:58:00,39.4,31.8,29.98,North,5,0.0,0.0,74,0.00,,,0.00,7,WeatherCatV2.00B1758,2013-11-19 15:58:00,
2013-11-19 16:03:00,39.2,31.6,29.98,SE,125,4.0,4.0,74,0.00,,,0.00,5,WeatherCatV2.00B1758,2013-11-19 16:03:00,
2013-11-19 16:08:00,38.9,31.3,29.98,SSW,205,0.0,1.0,74,0.00,,,0.00,0,WeatherCatV2.00B1758,2013-11-19 16:08:00,
2013-11-19 16:13:00,38.7,31.5,29.98,WNW,284,0.0,2.0,75,0.00,,,0.00,0,WeatherCatV2.00B1758,2013-11-19 16:13:00,
2013-11-19 16:18:00,38.4,31.2,29.98,NW,311,0.0,1.0,75,0.00,,,0.00,0,WeatherCatV2.00B1758,2013-11-19 16:18:00,
2013-11-19 16:23:00,38.2,31.0,29.99,NW,311,0.0,2.0,75,0.00,,,0.00,0,WeatherCatV2.00B1758,2013-11-19 16:23:00,
2013-11-19 16:28:00,38.0,31.1,29.99,NNW,344,2.0,3.0,76,0.00,,,0.00,0,WeatherCatV2.00B1758,2013-11-19 16:28:00,
2013-11-19 16:33:00,37.8,30.9,29.99,North,5,0.0,0.0,76,0.00,,,0.00,0,WeatherCatV2.00B1758,2013-11-19 16:33:00,
2013-11-19 16:38:00,37.7,30.8,29.99,NNW,340,0.0,2.0,76,0.00,,,0.00,0,WeatherCatV2.00B1758,2013-11-19 16:38:00,
2013-11-19 16:43:00,37.5,31.0,29.99,NNE,22,0.0,0.0,77,0.00,,,0.00,0,WeatherCatV2.00B1758,2013-11-19 16:43:00,
2013-11-19 16:48:00,37.4,30.9,30.00,NNE,22,0.0,0.0,77,0.00,,,0.00,0,WeatherCatV2.00B1758,2013-11-19 16:48:00,
2013-11-19 16:53:00,37.3,31.1,30.00,NNW,337,0.0,0.0,78,0.00,,,0.00,0,WeatherCatV2.00B1758,2013-11-19 16:53:00,
2013-11-19 16:58:00,37.1,30.9,30.00,NNW,337,0.0,0.0,78,0.00,,,0.00,0,WeatherCatV2.00B1758,2013-11-19 16:58:00,
2013-11-19 17:03:00,36.9,31.0,30.00,NNW,337,0.0,0.0,79,0.00,,,0.00,0,WeatherCatV2.00B1758,2013-11-19 17:03:00,
2013-11-19 17:08:00,36.7,30.8,30.01,NNW,337,0.0,0.0,79,0.00,,,0.00,0,WeatherCatV2.00B1758,2013-11-19 17:08:00,
2013-11-19 17:13:00,36.5,30.9,30.01,NNW,337,0.0,0.0,80,0.00,,,0.00,0,WeatherCatV2.00B1758,2013-11-19 17:13:00,
2013-11-19 17:18:00,36.4,30.8,30.01,NNW,337,0.0,0.0,80,0.00,,,0.00,0,WeatherCatV2.00B1758,2013-11-19 17:18:00,
2013-11-19 17:23:00,36.3,30.7,30.01,NNW,337,0.0,1.0,80,0.00,,,0.00,0,WeatherCatV2.00B1758,2013-11-19 17:23:00,
2013-11-19 17:28:00,36.3,30.7,30.01,North,355,0.0,0.0,80,0.00,,,0.00,0,WeatherCatV2.00B1758,2013-11-19 17:28:00,
2013-11-19 17:33:00,36.4,30.5,30.02,NW,326,0.0,4.0,79,0.00,,,0.00,0,WeatherCatV2.00B1758,2013-11-19 17:33:00,
2013-11-19 17:35:00,36.4,30.5,30.02,NNW,336,2.0,4.0,79,0.00,,,0.00,0,WeatherCatV2.00B1758,2013-11-19 17:35:00,
2013-11-19 17:40:00,36.5,30.3,30.02,NNW,337,0.0,0.0,78,0.00,,,0.00,0,WeatherCatV2.00B1758,2013-11-19 17:40:00,
2013-11-19 17:45:00,36.6,30.1,30.02,NNW,337,0.0,1.0,77,0.00,,,0.00,0,WeatherCatV2.00B1758,2013-11-19 17:45:00,
2013-11-19 17:50:00,36.5,29.7,30.02,NNW,337,0.0,1.0,76,0.00,,,0.00,0,WeatherCatV2.00B1758,2013-11-19 17:50:00,
2013-11-19 17:55:00,36.5,29.7,30.02,NNW,337,0.0,1.0,76,0.00,,,0.00,0,WeatherCatV2.00B1758,2013-11-19 17:55:00,
2013-11-19 18:00:00,36.4,29.6,30.03,NNW,340,2.0,2.0,76,0.00,,,0.00,0,WeatherCatV2.00B1758,2013-11-19 18:00:00,
2013-11-19 18:05:00,36.2,29.4,30.03,NNW,340,1.0,1.0,76,0.00,,,0.00,0,WeatherCatV2.00B1758,2013-11-19 18:05:00,
2013-11-19 18:10:00,36.1,29.6,30.03,NNW,340,0.0,0.0,77,0.00,,,0.00,0,WeatherCatV2.00B1758,2013-11-19 18:10:00,
2013-11-19 18:15:00,35.9,29.4,30.03,NNW,340,0.0,1.0,77,0.00,,,0.00,0,WeatherCatV2.00B1758,2013-11-19 18:15:00,
2013-11-19 18:20:00,35.7,29.5,30.03,NNW,338,0.0,2.0,78,0.00,,,0.00,0,WeatherCatV2.00B1758,2013-11-19 18:20:00,
2013-11-19 18:25:00,35.7,29.5,30.03,NNW,345,0.0,1.0,78,0.00,,,0.00,0,WeatherCatV2.00B1758,2013-11-19 18:25:00,
2013-11-19 18:30:00,35.7,29.5,30.03,NNW,329,0.0,1.0,78,0.00,,,0.00,0,WeatherCatV2.00B1758,2013-11-19 18:30:00,
2013-11-19 18:35:00,35.7,29.8,30.04,NNW,330,0.0,1.0,79,0.00,,,0.00,0,WeatherCatV2.00B1758,2013-11-19 18:35:00,
2013-11-19 18:40:00,35.7,29.8,30.04,NNE,33,0.0,0.0,79,0.00,,,0.00,0,WeatherCatV2.00B1758,2013-11-19 18:40:00,
2013-11-19 18:45:00,35.7,29.8,30.04,NW,325,0.0,0.0,79,0.00,,,0.00,0,WeatherCatV2.00B1758,2013-11-19 18:45:00,
2013-11-19 18:50:00,35.6,29.7,30.04,NNW,333,0.0,3.0,79,0.00,,,0.00,0,WeatherCatV2.00B1758,2013-11-19 18:50:00,
2013-11-19 18:55:00,35.6,29.7,30.04,NNW,333,0.0,0.0,79,0.00,,,0.00,0,WeatherCatV2.00B1758,2013-11-19 18:55:00,
2013-11-19 19:00:00,35.5,29.6,30.04,NNW,333,0.0,0.0,79,0.00,,,0.00,0,WeatherCatV2.00B1758,2013-11-19 19:00:00,
2013-11-19 19:05:00,35.3,29.5,30.04,NNW,332,0.0,0.0,79,0.00,,,0.00,0,WeatherCatV2.00B1758,2013-11-19 19:05:00,
2013-11-19 19:10:00,35.2,29.7,30.04,NNW,333,0.0,0.0,80,0.00,,,0.00,0,WeatherCatV2.00B1758,2013-11-19 19:10:00,
2013-11-19 19:15:00,35.1,29.6,30.04,NNW,333,0.0,0.0,80,0.00,,,0.00,0,WeatherCatV2.00B1758,2013-11-19 19:15:00,
2013-11-19 19:20:00,35.0,29.5,30.04,NNW,333,0.0,0.0,80,0.00,,,0.00,0,WeatherCatV2.00B1758,2013-11-19 19:20:00,
2013-11-19 19:25:00,34.8,29.6,30.04,NNW,333,0.0,0.0,81,0.00,,,0.00,0,WeatherCatV2.00B1758,2013-11-19 19:25:00,
2013-11-19 19:30:00,34.6,29.4,30.04,NNW,335,0.0,1.0,81,0.00,,,0.00,0,WeatherCatV2.00B1758,2013-11-19 19:30:00,
2013-11-19 19:35:00,34.4,29.5,30.04,NNW,335,0.0,0.0,82,0.00,,,0.00,0,WeatherCatV2.00B1758,2013-11-19 19:35:00,
2013-11-19 19:40:00,34.3,29.4,30.05,NNW,335,0.0,0.0,82,0.00,,,0.00,0,WeatherCatV2.00B1758,2013-11-19 19:40:00,
2013-11-19 19:45:00,34.2,29.6,30.05,NNW,335,0.0,1.0,83,0.00,,,0.00,0,WeatherCatV2.00B1758,2013-11-19 19:45:00,
2013-11-19 19:50:00,34.0,29.4,30.05,NNW,334,0.0,0.0,83,0.00,,,0.00,0,WeatherCatV2.00B1758,2013-11-19 19:50:00,
2013-11-19 19:55:00,33.9,29.6,30.05,NNW,335,0.0,0.0,84,0.00,,,0.00,0,WeatherCatV2.00B1758,2013-11-19 19:55:00,
2013-11-19 20:00:00,33.7,29.4,30.05,NNE,17,0.0,3.0,84,0.00,,,0.00,0,WeatherCatV2.00B1758,2013-11-19 20:00:00,
2013-11-19 20:05:00,33.7,29.7,30.05,NNE,17,0.0,1.0,85,0.00,,,0.00,0,WeatherCatV2.00B1758,2013-11-19 20:05:00,
2013-11-19 20:10:00,33.5,29.5,30.05,NNE,17,0.0,1.0,85,0.00,,,0.00,0,WeatherCatV2.00B1758,2013-11-19 20:10:00,
2013-11-19 20:15:00,33.5,29.5,30.05,NNE,15,2.0,2.0,85,0.00,,,0.00,0,WeatherCatV2.00B1758,2013-11-19 20:15:00,
2013-11-19 20:20:00,33.5,29.8,30.05,East,92,0.0,1.0,86,0.00,,,0.00,0,WeatherCatV2.00B1758,2013-11-19 20:20:00,
2013-11-19 20:25:00,33.5,29.8,30.04,North,11,0.0,1.0,86,0.00,,,0.00,0,WeatherCatV2.00B1758,2013-11-19 20:25:00,
2013-11-19 20:30:00,33.5,29.8,30.04,North,11,0.0,0.0,86,0.00,,,0.00,0,WeatherCatV2.00B1758,2013-11-19 20:30:00,
2013-11-19 20:35:00,33.5,29.8,30.04,NE,34,0.0,2.0,86,0.00,,,0.00,0,WeatherCatV2.00B1758,2013-11-19 20:35:00,
2013-11-19 20:40:00,33.4,29.7,30.04,North,350,0.0,0.0,86,0.00,,,0.00,0,WeatherCatV2.00B1758,2013-11-19 20:40:00,
2013-11-19 20:45:00,33.2,29.5,30.04,NNW,341,1.0,3.0,86,0.00,,,0.00,0,WeatherCatV2.00B1758,2013-11-19 20:45:00,
2013-11-19 20:50:00,33.2,29.5,30.04,NNW,341,0.0,0.0,86,0.00,,,0.00,0,WeatherCatV2.00B1758,2013-11-19 20:50:00,
2013-11-19 20:55:00,33.2,29.5,30.04,NNW,341,0.0,1.0,86,0.00,,,0.00,0,WeatherCatV2.00B1758,2013-11-19 20:55:00,
2013-11-19 21:00:00,33.2,29.5,30.04,NNW,342,0.0,0.0,86,0.00,,,0.00,0,WeatherCatV2.00B1758,2013-11-19 21:00:00,
2013-11-19 21:05:00,33.2,29.5,30.04,NNW,342,0.0,0.0,86,0.00,,,0.00,0,WeatherCatV2.00B1758,2013-11-19 21:05:00,
2013-11-19 21:10:00,33.2,29.5,30.04,NNW,342,0.0,0.0,86,0.00,,,0.00,0,WeatherCatV2.00B1758,2013-11-19 21:10:00,
2013-11-19 21:15:00,33.1,29.4,30.04,NNW,343,0.0,2.0,86,0.00,,,0.00,0,WeatherCatV2.00B1758,2013-11-19 21:15:00,
2013-11-19 21:20:00,33.1,29.4,30.04,NNW,343,0.0,1.0,86,0.00,,,0.00,0,WeatherCatV2.00B1758,2013-11-19 21:20:00,
2013-11-19 21:25:00,33.0,29.3,30.04,NNE,28,0.0,0.0,86,0.00,,,0.00,0,WeatherCatV2.00B1758,2013-11-19 21:25:00,
2013-11-19 21:30:00,32.8,29.1,30.04,NNE,28,0.0,1.0,86,0.00,,,0.00,0,WeatherCatV2.00B1758,2013-11-19 21:30:00,
2013-11-19 21:35:00,32.6,28.9,30.05,WNW,302,0.0,0.0,86,0.00,,,0.00,0,WeatherCatV2.00B1758,2013-11-19 21:35:00,
2013-11-19 21:40:00,32.4,29.0,30.04,WNW,302,0.0,0.0,87,0.00,,,0.00,0,WeatherCatV2.00B1758,2013-11-19 21:40:00,
2013-11-19 21:45:00,32.2,28.8,30.04,WNW,302,0.0,1.0,87,0.00,,,0.00,0,WeatherCatV2.00B1758,2013-11-19 21:45:00,
2013-11-19 21:50:00,32.0,28.9,30.04,NW,322,0.0,1.0,88,0.00,,,0.00,0,WeatherCatV2.00B1758,2013-11-19 21:50:00,
2013-11-19 21:55:00,31.9,28.8,30.04,NW,322,0.0,1.0,88,0.00,,,0.00,0,WeatherCatV2.00B1758,2013-11-19 21:55:00,
2013-11-19 22:00:00,31.9,28.8,30.04,NW,322,0.0,1.0,88,0.00,,,0.00,0,WeatherCatV2.00B1758,2013-11-19 22:00:00,
2013-11-19 22:05:00,31.8,28.7,30.04,NW,322,0.0,1.0,88,0.00,,,0.00,0,WeatherCatV2.00B1758,2013-11-19 22:05:00,
2013-11-19 22:10:00,31.7,28.6,30.04,NNW,331,1.0,2.0,88,0.00,,,0.00,0,WeatherCatV2.00B1758,2013-11-19 22:10:00,
2013-11-19 22:15:00,31.6,28.5,30.04,NNW,331,0.0,2.0,88,0.00,,,0.00,0,WeatherCatV2.00B1758,2013-11-19 22:15:00,
2013-11-19 22:20:00,31.6,28.7,30.04,NNW,340,0.0,1.0,89,0.00,,,0.00,0,WeatherCatV2.00B1758,2013-11-19 22:20:00,
2013-11-19 22:25:00,31.6,28.7,30.04,NNW,340,0.0,1.0,89,0.00,,,0.00,0,WeatherCatV2.00B1758,2013-11-19 22:25:00,
2013-11-19 22:30:00,31.5,28.6,30.03,NNW,340,0.0,0.0,89,0.00,,,0.00,0,WeatherCatV2.00B1758,2013-11-19 22:30:00,
2013-11-19 22:35:00,31.4,28.5,30.03,NNW,340,0.0,0.0,89,0.00,,,0.00,0,WeatherCatV2.00B1758,2013-11-19 22:35:00,
2013-11-19 22:40:00,31.2,28.3,30.03,NNW,340,0.0,1.0,89,0.00,,,0.00,0,WeatherCatV2.00B1758,2013-11-19 22:40:00,
2013-11-19 22:45:00,31.0,28.1,30.03,NNW,340,1.0,2.0,89,0.00,,,0.00,0,WeatherCatV2.00B1758,2013-11-19 22:45:00,
2013-11-19 22:50:00,30.8,28.0,30.03,NNW,340,1.0,2.0,89,0.00,,,0.00,0,WeatherCatV2.00B1758,2013-11-19 22:50:00,
2013-11-19 22:55:00,30.6,28.0,30.03,NNW,340,0.0,1.0,90,0.00,,,0.00,0,WeatherCatV2.00B1758,2013-11-19 22:55:00,
2013-11-19 23:00:00,30.5,27.9,30.03,NNW,340,0.0,0.0,90,0.00,,,0.00,0,WeatherCatV2.00B1758,2013-11-19 23:00:00,
2013-11-19 23:05:00,30.3,27.7,30.03,NNW,340,0.0,0.0,90,0.00,,,0.00,0,WeatherCatV2.00B1758,2013-11-19 23:05:00,
2013-11-19 23:10:00,30.2,27.6,30.03,NNW,340,0.0,1.0,90,0.00,,,0.00,0,WeatherCatV2.00B1758,2013-11-19 23:10:00,
2013-11-19 23:15:00,30.2,27.9,30.03,NNW,340,0.0,0.0,91,0.00,,,0.00,0,WeatherCatV2.00B1758,2013-11-19 23:15:00,
2013-11-19 23:20:00,30.1,27.8,30.03,NNW,340,0.0,1.0,91,0.00,,,0.00,0,WeatherCatV2.00B1758,2013-11-19 23:20:00,
2013-11-19 23:25:00,30.0,27.7,30.03,NNW,340,0.0,0.0,91,0.00,,,0.00,0,WeatherCatV2.00B1758,2013-11-19 23:25:00,
2013-11-19 23:30:00,29.9,27.6,30.03,NNW,340,0.0,0.0,91,0.00,,,0.00,0,WeatherCatV2.00B1758,2013-11-19 23:30:00,
2013-11-19 23:35:00,29.9,27.6,30.03,NNW,340,0.0,0.0,91,0.00,,,0.00,0,WeatherCatV2.00B1758,2013-11-19 23:35:00,
2013-11-19 23:40:00,29.9,27.9,30.03,NNW,340,0.0,0.0,92,0.00,,,0.00,0,WeatherCatV2.00B1758,2013-11-19 23:40:00,
2013-11-19 23:45:00,29.9,27.9,30.02,NNW,340,0.0,0.0,92,0.00,,,0.00,0,WeatherCatV2.00B1758,2013-11-19 23:45:00,
2013-11-19 23:50:00,29.8,27.8,30.02,NNW,340,0.0,0.0,92,0.00,,,0.00,0,WeatherCatV2.00B1758,2013-11-19 23:50:00,
2013-11-19 23:55:00,29.9,27.9,30.03,NNW,340,0.0,0.0,92,0.00,,,0.00,0,WeatherCatV2.00B1758,2013-11-19 23:55:00,